This demonstration page uses our WeatherBlox Daily Observations layout. Learn more.

Left ArrowRight Arrow

44.8408, -93.29828

Hourly Observations for November 10, 2019

Temp ( °F °C ) Dew Point ( °F °C ) Humidity (%) Winds ( mph kmh ) Pressure ( in mb ) Visibility ( mi km ) Precip ( " mm )
12:00 am 00:00 Mostly Cloudy 33 0.6 28 -2.2 82 82 NW 9 15 30.02 1017 10 16 0.00 0.00
12:42 am 00:42 Partly Cloudy 32 0 27 -2.8 82 82 NW 7 11 30.03 1017 10 16 0.00 0.00
12:53 am 00:53 Partly Cloudy 32 0 27 -2.8 82 82 NW 8 13 30.00 1016 10 16 0.00 0.00
1:53 am 01:53 Mostly Cloudy 31 -0.6 27 -2.8 85 85 NW 13 20 30.04 1017 10 16 0.00 0.00
2:53 am 02:53 Cloudy 31 -0.6 25 -3.9 79 79 NNW 13 20 30.06 1018 10 16 0.00 0.00
3:53 am 03:53 Cloudy 30 -1.1 24 -4.4 79 79 NNW 9 15 30.06 1018 10 16 0.00 0.00
4:53 am 04:53 Mostly Cloudy 30 -1.1 23 -5 75 75 NNW 15 24 30.08 1019 10 16 0.00 0.00
5:53 am 05:53 Cloudy 30 -1.1 22 -5.6 72 72 NNW 14 22 30.11 1020 10 16 0.00 0.00
6:53 am 06:53 Cloudy 30 -1.1 19 -7.2 64 64 NNE 14 22 30.13 1020 10 16 0.00 0.00
7:29 am 07:29 Cloudy 29 -1.7 17 -8.3 61 61 NNE 14 22 30.16 1021 10 16 0.00 0.00
7:53 am 07:53 Mostly Cloudy 29 -1.7 17 -8.3 61 61 NNE 13 20 30.16 1021 10 16 0.00 0.00
8:53 am 08:53 Cloudy 29 -1.7 17 -8.3 61 61 N 16 26 30.21 1023 10 16 0.00 0.00
9:53 am 09:53 Mostly Cloudy 31 -0.6 15 -9.4 52 52 N 14 22 30.18 1022 10 16 0.00 0.00
10:53 am 10:53 Cloudy 29 -1.7 13 -10.6 51 51 N 15 24 30.23 1024 10 16 0.00 0.00
11:53 am 11:53 Cloudy 30 -1.1 13 -10.6 49 49 N 10 17 30.22 1024 10 16 0.00 0.00
12:53 pm 12:53 Cloudy 29 -1.7 14 -10 54 54 N 13 20 30.21 1023 10 16 0.00 0.00
1:53 pm 13:53 Mostly Cloudy 28 -2.2 14 -10 56 56 N 14 22 30.22 1024 10 16 0.00 0.00
2:53 pm 14:53 Cloudy with Light Snow 27 -2.8 16 -8.9 63 63 N 16 26 30.25 1024 3 5 0.00 0.00
3:04 pm 15:04 Cloudy with Light Snow 26 -3.3 17 -8.3 69 69 NNW 16 26 30.28 1025 2 3 0.00 0.00
3:26 pm 15:26 Cloudy with Light Snow 26 -3.3 18 -7.8 71 71 N 12 19 30.29 1026 3 5 0.00 0.00
3:53 pm 15:53 Cloudy with Light Snow 25 -3.9 18 -7.8 75 75 N 14 22 30.28 1025 3 5 0.00 0.00
4:03 pm 16:03 Cloudy with Light Snow 24 -4.4 18 -7.8 77 77 NNE 15 24 30.31 1026 2 3 0.00 0.00
4:13 pm 16:13 Cloudy with Light Snow 24 -4.4 17 -8.3 75 75 N 14 22 30.32 1027 3 5 0.00 0.00
4:20 pm 16:20 Cloudy with Light Snow 24 -4.4 17 -8.3 75 75 N 16 26 30.32 1027 3 5 0.00 0.00
4:28 pm 16:28 Cloudy with Light Snow 23 -5 17 -8.3 78 78 N 14 22 30.33 1027 3 5 0.00 0.00
4:38 pm 16:38 Cloudy with Light Snow 23 -5 18 -7.8 81 81 NNE 15 24 30.33 1027 1 2 0.00 0.00
4:53 pm 16:53 Cloudy with Light Snow 22 -5.6 18 -7.8 85 85 N 14 22 30.31 1026 2 2 0.01 0.25
5:02 pm 17:02 Cloudy with Light Snow 22 -5.6 16 -8.9 78 78 N 14 22 30.34 1027 4 6 0.00 0.00
5:32 pm 17:32 Cloudy with Light Snow 21 -6.1 13 -10.6 71 71 N 15 24 30.36 1028 4 6 0.00 0.00
5:53 pm 17:53 Mostly Cloudy with Light Snow 21 -6.1 13 -10.6 71 71 N 10 17 30.33 1027 8 13 0.00 0.00
6:53 pm 18:53 Mostly Cloudy 21 -6.1 9 -12.8 59 59 N 12 19 30.36 1028 10 16 0.00 0.00
7:53 pm 19:53 Mostly Cloudy 20 -6.7 5 -15 52 52 N 12 19 30.37 1029 10 16 0.00 0.00
8:53 pm 20:53 Mostly Cloudy 19 -7.2 4 -15.6 51 51 N 14 22 30.39 1029 10 16 0.00 0.00
9:53 pm 21:53 Mostly Cloudy 18 -7.8 3 -16.1 52 52 N 9 15 30.44 1031 10 16 0.00 0.00
10:53 pm 22:53 Mostly Cloudy 18 -7.8 3 -16.1 52 52 N 16 26 30.46 1032 10 16 0.00 0.00
11:53 pm 23:53 Cloudy 18 -7.8 3 -16.1 52 52 N 15 24 30.47 1032 10 16 0.00 0.00

Powered by AerisWeather